Waarnemingen

Advertentie
Mijn weer
Deelen, Nederland (6275): temperatuur & dauwpunt: 11.10.2018 05:00:00 - 17.10.2018 05:00:00 (CEST)Deelen, Nederland (6275): temperatuur 5cm: 11.10.2018 05:00:00 - 17.10.2018 05:00:00 (CEST)Deelen, Nederland (6275): windsnelheid & windstoten: 11.10.2018 05:00:00 - 17.10.2018 05:00:00 (CEST)Deelen, Nederland (6275): windrichting: 11.10.2018 05:00:00 - 17.10.2018 05:00:00 (CEST)Deelen, Nederland (6275): luchtdruk: 11.10.2018 05:00:00 - 17.10.2018 05:00:00 (CEST)Deelen, Nederland (6275): zicht: 11.10.2018 05:00:00 - 17.10.2018 05:00:00 (CEST)Deelen, Nederland (6275): neerslag: 11.10.2018 05:00:00 - 17.10.2018 05:00:00 (CEST)
Datum & Tijd tt [°C] td [°C] tt 5cm [°C] ff [km/u] ff [kn] fx [km/u] fx [kn] dd ppp [hPa] vv [km] rr [mm]
17.10.2018 05:00:00 11,0 9,0 8,8 4 2 7 4 OZO 1017,8 10 0,0
17.10.2018 04:00:00 12,4 9,5 9,8 0 0 7 4 N 1018,0 10 0,0
17.10.2018 03:00:00 14,0 9,7 12,1 5 3 11 6 ZZO 1017,7 10 0,0
17.10.2018 02:00:00 15,6 10,1 14,5 9 5 14 8 ZZO 1017,8 10 0,0
17.10.2018 01:00:00 15,8 10,2 14,4 8 4 11 6 ZO 1017,8 10 0,0
17.10.2018 00:00:00 12,9 9,3 11,3 2 1 11 6 - 1018,3 10 0,0
16.10.2018 23:00:00 14,8 9,8 12,2 5 3 11 6 OZO 1018,5 10 0,0
16.10.2018 22:00:00 12,5 9,3 11,0 5 3 11 6 OZO 1018,7 10 0,0
16.10.2018 21:00:00 13,7 9,7 11,3 5 3 11 6 OZO 1018,6 10 0,0
16.10.2018 20:00:00 15,6 10,6 13,1 8 4 11 6 OZO 1018,4 10 0,0
16.10.2018 19:00:00 16,8 11,2 14,1 5 3 11 6 O 1018,4 10 0,0
16.10.2018 18:00:00 19,0 13,3 18,2 4 2 14 8 ZZO 1018,1 10 0,0
16.10.2018 17:00:00 22,8 11,3 23,1 11 6 18 10 Z 1018,0 10 0,0
16.10.2018 16:00:00 23,4 10,4 23,9 11 6 18 10 Z 1018,3 10 0,0
16.10.2018 15:00:00 22,9 11,5 23,4 11 6 22 12 Z 1018,3 10 0,0
16.10.2018 14:00:00 22,6 11,6 23,8 13 7 22 12 Z 1018,4 10 0,0
16.10.2018 13:00:00 21,8 11,0 23,0 15 8 22 12 Z 1018,5 10 0,0
16.10.2018 12:00:00 20,7 11,7 21,3 11 6 18 10 Z 1018,4 10 0,0
16.10.2018 11:00:00 18,5 12,7 18,3 5 3 11 6 ZO 1018,1 10 0,0
16.10.2018 10:00:00 15,6 11,6 14,6 8 4 11 6 OZO 1018,2 9 0,0
16.10.2018 09:00:00 11,8 10,7 10,2 4 2 4 2 OZO 1018,1 10 0,0
16.10.2018 08:00:00 10,7 9,7 9,2 4 2 7 4 - 1017,7 10 0,0
16.10.2018 07:00:00 10,0 9,5 8,3 2 1 7 4 ZZO 1017,3 10 0,0
16.10.2018 06:00:00 10,2 9,7 8,5 4 2 7 4 ZO 1017,1 10 0,0
16.10.2018 05:00:00 10,1 9,4 8,9 4 2 7 4 ZZO 1016,8 10 0,0
16.10.2018 04:00:00 11,5 10,9 9,3 2 1 4 2 N 1016,7 10 0,0
16.10.2018 03:00:00 12,3 11,4 10,7 2 1 4 2 ZO 1016,3 10 0,0
16.10.2018 02:00:00 13,7 11,8 12,3 2 1 7 4 ZO 1015,9 10 0,0
16.10.2018 01:00:00 14,2 12,5 12,8 0 0 4 2 N 1015,6 10 0,0
16.10.2018 00:00:00 14,7 12,8 13,6 2 1 7 4 ZZO 1015,3 10 0,0
15.10.2018 23:00:00 15,9 12,6 14,8 5 3 11 6 - 1015,1 10 0,0
15.10.2018 22:00:00 15,9 12,6 14,9 4 2 7 4 ZZO 1014,6 10 0,0
15.10.2018 21:00:00 16,4 13,3 15,3 2 1 4 2 O 1014,3 10 0,0
15.10.2018 20:00:00 17,8 12,7 16,5 9 5 11 6 OZO 1013,9 10 0,0
15.10.2018 19:00:00 18,1 13,4 16,4 5 3 7 4 OZO 1013,4 10 0,0
15.10.2018 18:00:00 20,2 12,6 19,3 8 4 22 12 ZZW 1013,1 10 0,0
15.10.2018 17:00:00 22,4 12,7 23,0 16 9 29 16 ZW 1012,5 10 0,0
15.10.2018 16:00:00 23,3 12,3 24,4 16 9 29 16 ZW 1012,3 10 0,0
15.10.2018 15:00:00 22,7 12,0 24,4 13 7 25 14 ZZW 1012,2 10 0,0
15.10.2018 14:00:00 21,2 11,8 21,7 16 9 29 16 Z 1012,1 10 0,0
15.10.2018 13:00:00 21,6 11,9 23,0 18 10 36 19 ZZW 1012,1 10 0,0
15.10.2018 12:00:00 21,1 11,6 22,4 18 10 32 18 ZZW 1011,8 10 0,0
15.10.2018 11:00:00 20,3 10,3 21,3 21 11 32 18 Z 1011,5 10 0,0
15.10.2018 10:00:00 18,3 10,3 18,5 13 7 18 10 Z 1011,3 10 0,0
15.10.2018 09:00:00 16,0 9,8 13,9 5 3 14 8 ZO 1010,8 10 0,0
15.10.2018 08:00:00 14,5 9,2 12,0 5 3 11 6 ZO 1010,3 10 0,0
15.10.2018 07:00:00 14,9 9,4 13,7 5 3 11 6 ZO 1009,9 10 0,0
15.10.2018 06:00:00 15,0 9,3 13,7 5 3 7 4 ZO 1009,8 10 0,0
15.10.2018 05:00:00 14,6 9,4 13,0 5 3 7 4 ZO 1009,5 10 0,0
15.10.2018 04:00:00 15,2 9,8 13,4 8 4 18 10 ZO 1009,5 10 0,0
15.10.2018 03:00:00 15,4 10,4 13,4 8 4 11 6 ZO 1009,5 10 0,0
15.10.2018 02:00:00 15,7 11,0 13,6 5 3 11 6 O 1009,2 10 0,0
15.10.2018 01:00:00 15,0 11,0 13,3 5 3 11 6 ZZO 1009,2 10 0,0
15.10.2018 00:00:00 16,4 11,4 14,6 9 5 11 6 ZO 1008,9 10 0,0
14.10.2018 23:00:00 17,2 11,1 15,1 9 5 11 6 ZO 1008,8 10 0,0
14.10.2018 22:00:00 18,4 10,9 16,9 9 5 18 10 ZZO 1008,4 10 0,0
14.10.2018 21:00:00 19,6 11,1 18,2 11 6 14 8 ZO 1008,1 10 0,0
14.10.2018 20:00:00 20,8 11,2 19,4 13 7 18 10 ZZO 1008,0 10 0,0
14.10.2018 19:00:00 21,9 10,6 20,2 11 6 18 10 Z 1007,6 10 0,0
14.10.2018 18:00:00 23,6 9,1 22,9 16 9 32 18 Z 1007,2 10 0,0
14.10.2018 17:00:00 24,6 8,5 23,8 16 9 50 27 ZZW 1007,1 10 0,0
14.10.2018 16:00:00 25,9 9,0 26,3 34 18 54 29 Z 1006,7 10 0,0
14.10.2018 15:00:00 25,6 7,5 26,2 31 17 50 27 Z 1006,7 10 0,0
14.10.2018 14:00:00 24,5 10,5 25,6 26 14 36 19 Z 1007,2 10 0,0
14.10.2018 13:00:00 22,2 12,7 23,1 21 11 32 18 Z 1008,1 10 0,0
14.10.2018 12:00:00 21,1 12,6 21,9 22 12 32 18 Z 1008,5 10 0,0
14.10.2018 11:00:00 19,5 12,1 20,2 16 9 32 18 ZZO 1008,9 10 0,0
14.10.2018 10:00:00 17,5 11,6 17,5 15 8 25 14 ZZO 1009,3 10 0,0
14.10.2018 09:00:00 15,6 11,1 13,8 13 7 18 10 ZO 1009,5 10 0,0
14.10.2018 08:00:00 14,0 10,7 12,5 8 4 18 10 ZO 1009,6 10 0,0
14.10.2018 07:00:00 14,5 10,8 13,3 11 6 14 8 ZO 1009,7 10 0,0
14.10.2018 06:00:00 15,2 11,0 14,0 9 5 14 8 ZO 1010,2 10 0,0
14.10.2018 05:00:00 15,4 11,1 14,3 9 5 18 10 ZO 1010,5 10 0,0
14.10.2018 04:00:00 15,9 11,0 15,0 11 6 18 10 ZO 1011,1 10 0,0
14.10.2018 03:00:00 17,0 11,0 15,7 13 7 22 12 ZO 1011,9 10 0,0
14.10.2018 02:00:00 17,8 11,0 16,6 13 7 22 12 ZZO 1012,2 10 0,0
14.10.2018 01:00:00 18,4 11,0 17,1 13 7 18 10 ZZO 1013,0 10 0,0
14.10.2018 00:00:00 18,9 11,4 17,7 13 7 18 10 ZO 1013,5 10 0,0
13.10.2018 23:00:00 19,8 11,7 18,6 15 8 25 14 ZZO 1013,7 10 0,0
13.10.2018 22:00:00 20,0 12,4 18,6 15 8 18 10 ZO 1013,6 10 0,0
13.10.2018 21:00:00 20,5 12,7 19,2 15 8 18 10 ZO 1013,7 10 0,0
13.10.2018 20:00:00 21,4 12,7 20,0 13 7 18 10 ZO 1014,0 10 0,0
13.10.2018 19:00:00 23,2 12,3 21,4 13 7 18 10 ZO 1014,1 10 0,0
13.10.2018 18:00:00 25,2 12,8 24,4 15 8 29 16 ZO 1014,2 10 0,0
13.10.2018 17:00:00 25,9 14,0 25,9 18 10 32 18 ZO 1014,7 10 0,0
13.10.2018 16:00:00 26,0 14,2 26,7 18 10 32 18 ZZO 1015,5 10 0,0
13.10.2018 15:00:00 25,5 14,4 26,3 18 10 32 18 ZZO 1016,1 10 0,0
13.10.2018 14:00:00 25,3 14,2 26,8 16 9 25 14 ZZO 1016,9 10 0,0
13.10.2018 13:00:00 24,6 15,3 26,1 9 5 22 12 ZZO 1017,9 10 0,0
13.10.2018 12:00:00 22,7 14,9 23,9 18 10 25 14 ZZO 1018,4 10 0,0
13.10.2018 11:00:00 20,6 14,7 21,3 16 9 25 14 ZZO 1018,8 10 0,0
13.10.2018 10:00:00 18,6 13,8 18,6 16 9 25 14 ZZO 1018,9 10 0,0
13.10.2018 09:00:00 16,8 13,4 15,7 13 7 25 14 ZO 1018,9 10 0,0
13.10.2018 08:00:00 16,6 13,1 15,7 15 8 25 14 ZZO 1018,6 10 0,0
13.10.2018 07:00:00 17,0 13,3 15,8 15 8 25 14 ZZO 1018,9 10 0,0
13.10.2018 06:00:00 16,5 13,2 15,2 13 7 22 12 ZZO 1019,2 10 0,0
13.10.2018 05:00:00 17,0 13,4 15,4 13 7 22 12 ZZO 1019,2 10 0,0
13.10.2018 04:00:00 17,4 13,5 16,2 11 6 18 10 ZZO 1019,4 10 0,0
13.10.2018 03:00:00 18,2 13,5 16,9 13 7 18 10 ZZO 1019,0 10 0,0
13.10.2018 02:00:00 18,6 13,9 17,3 11 6 22 12 Z 1019,0 10 0,0
13.10.2018 01:00:00 18,9 14,2 17,8 13 7 22 12 ZZO 1018,8 10 0,0
13.10.2018 00:00:00 19,6 14,5 18,4 15 8 22 12 Z 1019,2 10 0,0
12.10.2018 23:00:00 20,1 14,6 19,0 13 7 22 12 ZZO 1019,2 10 0,0
12.10.2018 22:00:00 20,3 14,7 18,8 13 7 22 12 ZZO 1019,0 10 0,0
12.10.2018 21:00:00 20,3 14,6 19,3 11 6 18 10 ZZO 1018,9 10 0,0
12.10.2018 20:00:00 21,0 14,6 19,9 15 8 22 12 Z 1018,8 10 0,0
12.10.2018 19:00:00 21,3 14,5 20,6 16 9 29 16 Z 1018,4 10 0,0
12.10.2018 18:00:00 22,3 14,5 21,5 13 7 22 12 Z 1018,0 10 0,0
12.10.2018 17:00:00 23,2 14,5 23,4 21 11 40 21 Z 1018,1 10 0,0
12.10.2018 16:00:00 23,7 14,6 24,4 18 10 36 19 Z 1018,3 10 0,0
12.10.2018 15:00:00 22,9 14,4 23,9 21 11 32 18 Z 1018,3 10 0,0
12.10.2018 14:00:00 22,2 14,4 23,4 22 12 36 19 Z 1018,2 10 0,0
12.10.2018 13:00:00 21,2 15,2 22,0 21 11 36 19 Z 1018,2 10 0,0
12.10.2018 12:00:00 20,2 14,8 20,9 26 14 36 19 Z 1018,2 10 0,0
12.10.2018 11:00:00 18,5 14,5 19,0 26 14 40 21 Z 1018,3 10 0,0
12.10.2018 10:00:00 17,1 14,1 16,9 22 12 32 18 Z 1017,9 10 0,0
12.10.2018 09:00:00 15,4 13,8 14,3 15 8 22 12 ZZW 1017,4 10 0,0
12.10.2018 08:00:00 14,6 13,4 13,4 15 8 22 12 ZZW 1016,4 10 0,0
12.10.2018 07:00:00 15,4 13,7 14,3 16 9 25 14 ZZW 1015,5 10 0,0
12.10.2018 06:00:00 15,6 13,5 14,5 16 9 25 14 ZZW 1014,7 10 0,0
12.10.2018 05:00:00 15,6 12,9 14,3 15 8 22 12 Z 1014,3 10 0,0
12.10.2018 04:00:00 15,5 12,3 14,6 9 5 18 10 Z 1013,3 10 0,0
12.10.2018 03:00:00 16,9 12,3 16,0 13 7 29 16 ZZO 1013,0 10 0,0
12.10.2018 02:00:00 17,2 12,5 16,0 18 10 29 16 ZZO 1013,4 10 0,0
12.10.2018 01:00:00 16,1 12,6 14,9 13 7 18 10 ZO 1012,6 10 0,0
12.10.2018 00:00:00 16,7 12,7 15,5 15 8 22 12 ZO 1012,1 10 0,0
11.10.2018 23:00:00 17,2 12,6 16,0 13 7 18 10 ZO 1012,3 10 0,0
11.10.2018 22:00:00 17,8 12,7 16,6 13 7 25 14 ZO 1012,2 10 0,0
11.10.2018 21:00:00 18,6 12,5 17,4 15 8 22 12 ZZO 1012,3 10 0,0
11.10.2018 20:00:00 19,2 12,5 18,0 13 7 22 12 ZO 1012,0 10 0,0
11.10.2018 19:00:00 21,0 12,6 20,2 16 9 25 14 ZO 1011,4 10 0,0
11.10.2018 18:00:00 22,4 12,8 22,3 16 9 29 16 ZO 1011,0 10 0,0
11.10.2018 17:00:00 21,8 12,7 21,4 18 10 36 19 ZO 1010,9 10 0,0
11.10.2018 16:00:00 23,5 12,5 25,2 22 12 29 16 ZO 1011,0 10 0,0
11.10.2018 15:00:00 23,4 13,1 23,9 16 9 29 16 ZO 1011,1 10 0,0
11.10.2018 14:00:00 21,1 13,4 21,1 15 8 22 12 ZO 1011,5 10 0,0
11.10.2018 13:00:00 20,4 13,6 20,8 15 8 29 16 Z 1011,9 10 0,0
11.10.2018 12:00:00 19,7 13,3 20,9 15 8 25 14 Z 1012,2 10 0,0
11.10.2018 11:00:00 17,7 12,4 18,1 13 7 22 12 ZZO 1012,4 10 0,0
11.10.2018 10:00:00 16,6 12,0 16,7 9 5 14 8 ZZO 1012,2 10 0,0
11.10.2018 09:00:00 14,0 11,1 12,0 8 4 11 6 OZO 1012,0 10 0,0
11.10.2018 08:00:00 12,8 10,5 11,7 8 4 11 6 OZO 1011,2 10 0,0
11.10.2018 07:00:00 13,5 10,8 12,1 8 4 11 6 OZO 1010,8 10 0,0
11.10.2018 06:00:00 12,7 10,7 10,9 8 4 11 6 OZO 1011,1 10 0,0
11.10.2018 05:00:00 13,4 11,0 11,1 9 5 14 8 OZO 1011,0 10 0,0

tt = temperatuur
td = dauwpunt
tt 5cm = temperatuur 5cm
ff = windsnelheid
fx = windstoten
dd = windrichting
ppp = luchtdruk
vv = zicht
rr = neerslag

Weerstations in de omgeving